Zurück zum Katalog

PW-6U

AktivWissenschaftSSO
NORAD 66760·PAYLOAD·🇯🇵 Japan
Dieser Satellitenname wurde noch nicht durch offizielle Quellen bestätigt.

Gestartet Nov 28, 2025 von Vandenberg Space Force Base

Loading…

Nächste Überflüge (nächste 24 Stunden)

TLE

AktuellSource: Space-Track

Epoche: Sep 14, 2026, 08:29 UTC

1 66760U 25276CY  26257.35415093  .00003753  00000-0  17259-3 0  9994
2 66760  97.4114 329.6251 0001446  70.8666 289.2726 15.20952997 43988

Verfolge PW-6U in Echtzeit mit AllMySat

Download on the App Store